KW1M Weather Reports


Display with metric or nautical units.
time (UTC)temp
F
wind
direction
speed
MPH
gust
MPH
rain 1hr
in
rain 24hr
in
rain mn
in
humidity
%
barometer
mb
20260507150008 53 188 3.0 10.0 0.00 0.30 0.00 61 1008.7
20260507144506 51 187 4.0 11.0 0.00 0.30 0.00 70 1008.7
20260507143005 53 188 3.0 11.0 0.00 0.30 0.00 69 1008.5
20260507141501 52 187 0.0 5.0 0.00 0.30 0.00 72 1008.7
20260507140107 52 188 0.0 6.0 0.00 0.30 0.00 71 1008.5
20260507134558 52 167 1.0 6.0 0.00 0.30 0.00 76 1008.6
20260507133139 50 187 0.0 6.0 0.00 0.30 0.00 76 1008.8
20260507131551 50 187 0.0 5.0 0.00 0.30 0.00 81 1009.0
20260507130059 49 54 0.0 3.0 0.00 0.30 0.00 82 1008.9
20260507124548 48 52 0.0 4.0 0.00 0.30 0.00 84 1008.9
20260507123047 47 188 0.0 5.0 0.00 0.30 0.00 85 1008.8
20260507121541 46 60 0.0 1.0 0.00 0.30 0.00 88 1008.9
20260507120036 45 147 0.0 2.0 0.00 0.30 0.00 90 1008.9
20260507114534 44 187 0.0 1.0 0.00 0.30 0.00 92 1008.8
20260507113033 43 187 0.0 2.0 0.00 0.30 0.00 93 1008.6
20260507111523 43 187 0.0 0.0 0.00 0.30 0.00 94 1008.7
20260507110019 42 146 0.0 0.0 0.00 0.30 0.00 93 1008.4
20260507104514 42 155 0.0 0.0 0.00 0.30 0.00 93 1008.1
20260507103013 42 183 0.0 1.0 0.00 0.30 0.00 93 1008.0
20260507101511 43 186 0.0 1.0 0.00 0.30 0.00 93 1007.8
20260507100009 43 186 0.0 1.0 0.00 0.30 0.00 93 1008.3
20260507094508 43 56 0.0 0.0 0.00 0.30 0.00 93 1007.9
20260507093008 43 58 0.0 3.0 0.00 0.30 0.00 93 1008.0
20260507091506 43 187 0.0 4.0 0.00 0.30 0.00 94 1008.2
20260507090010 43 53 0.0 0.0 0.00 0.30 0.00 94 1008.3
20260507084502 43 186 0.0 3.0 0.00 0.30 0.00 94 1007.6
20260507083002 43 187 0.0 1.0 0.00 0.30 0.00 94 1007.6
20260507081559 43 188 0.0 2.0 0.00 0.30 0.00 94 1007.6
20260507080059 44 186 0.0 1.0 0.00 0.30 0.00 95 1007.6
20260507074558 44 187 0.0 2.0 0.00 0.30 0.00 95 1007.6
20260507073104 44 187 0.0 2.0 0.00 0.30 0.00 95 1007.2
20260507071554 44 187 0.0 3.0 0.00 0.30 0.00 95 1007.3
20260507070058 44 169 0.0 2.0 0.00 0.30 0.00 95 1006.9
20260507064554 44 56 0.0 2.0 0.00 0.30 0.00 96 1007.0
20260507063048 45 210 0.0 4.0 0.00 0.30 0.00 96 1006.9
20260507061547 45 207 0.0 3.0 0.00 0.30 0.00 96 1007.1
20260507060047 46 210 0.0 4.0 0.00 0.30 0.00 97 1007.1
20260507054543 46 206 0.0 4.0 0.00 0.30 0.00 97 1007.1
20260507053042 46 205 0.0 2.0 0.00 0.30 0.00 97 1007.1
20260507051540 46 205 0.0 4.0 0.00 0.30 0.00 97 1007.1
20260507050040 46 205 0.0 2.0 0.00 0.30 0.00 97 1006.9
20260507044553 46 205 0.0 1.0 0.00 0.30 0.00 97 1006.7
20260507043036 47 205 0.0 2.0 0.00 0.30 0.00 97 1007.0
20260507041533 47 205 0.0 1.0 0.01 0.30 0.00 97 1007.1
20260507040040 47 207 0.0 1.0 0.04 0.30 0.00 97 1007.0
20260507034539 48 208 0.0 2.0 0.06 0.30 0.30 97 1006.7
20260507033041 48 209 0.0 2.0 0.08 0.30 0.30 96 1006.8
20260507031537 48 211 0.0 3.0 0.07 0.28 0.28 96 1006.7
20260507030024 49 208 0.0 3.0 0.04 0.26 0.26 96 1006.8
20260507024521 50 216 0.0 4.0 0.04 0.24 0.24 96 1006.5
20260507023016 51 187 0.0 4.0 0.07 0.22 0.22 96 1006.5
20260507021513 53 186 0.0 4.0 0.09 0.22 0.22 97 1006.2
20260507020010 53 188 0.0 3.0 0.09 0.22 0.22 97 1005.8
20260507014509 55 188 0.0 1.0 0.07 0.20 0.20 97 1005.8
20260507013003 57 188 1.0 8.0 0.02 0.15 0.15 97 1005.5
20260507011504 57 132 1.0 8.0 0.00 0.13 0.13 97 1005.2
20260507010003 57 158 2.0 9.0 0.00 0.13 0.13 97 1005.2
20260507004500 57 188 1.0 8.0 0.00 0.13 0.13 97 1005.2
20260507003113 57 186 0.0 9.0 0.00 0.13 0.13 97 1005.1
20260507001605 57 142 1.0 6.0 0.00 0.13 0.13 97 1005.1
20260507000059 57 187 2.0 12.0 0.00 0.13 0.13 97 1004.8
20260506234606 57 156 2.0 9.0 0.00 0.13 0.13 97 1004.8
20260506233059 57 120 0.0 7.0 0.00 0.13 0.13 97 1004.8
20260506231556 57 150 3.0 14.0 0.00 0.13 0.13 97 1004.8
20260506224559 58 139 3.0 13.0 0.00 0.13 0.13 96 1004.7
20260506223053 58 184 3.0 13.0 0.00 0.13 0.13 96 1004.8
20260506221551 58 150 4.0 16.0 0.00 0.13 0.13 96 1004.8
20260506220053 58 113 5.0 19.0 0.00 0.13 0.13 96 1005.0
20260506214549 58 127 4.0 16.0 0.00 0.13 0.13 96 1004.9
20260506213047 58 117 3.0 17.0 0.00 0.13 0.13 96 1005.0
20260506211547 59 143 3.0 11.0 0.01 0.13 0.13 96 1005.1
20260506210045 59 117 2.0 16.0 0.03 0.13 0.13 96 1005.1
20260506204544 59 146 3.0 11.0 0.04 0.13 0.13 96 1005.2
20260506203043 59 173 3.0 14.0 0.05 0.13 0.13 96 1005.2
20260506201541 59 165 5.0 14.0 0.05 0.12 0.12 95 1005.5
20260506200041 59 120 4.0 14.0 0.03 0.10 0.10 95 1005.5
20260506194538 59 148 1.0 11.0 0.02 0.09 0.09 94 1005.8
20260506193042 59 111 3.0 6.0 0.02 0.08 0.08 94 1005.8
20260506191537 59 115 0.0 8.0 0.01 0.07 0.07 94 1005.6
20260506190039 59 127 0.0 7.0 0.03 0.07 0.07 94 1005.9
20260506184538 59 129 0.0 5.0 0.04 0.07 0.07 93 1006.2
20260506183029 59 128 2.0 9.0 0.05 0.06 0.06 92 1006.7
20260506181528 60 170 2.0 8.0 0.06 0.06 0.06 91 1006.7
20260506180030 60 159 4.0 12.0 0.04 0.04 0.04 89 1007.0
20260506174526 61 187 4.0 17.0 0.03 0.03 0.03 84 1007.0
20260506173031 64 138 7.0 14.0 0.00 0.00 0.00 79 1007.0
20260506171527 65 187 2.0 10.0 0.00 0.00 0.00 74 1006.7
20260506170022 66 122 3.0 9.0 0.00 0.00 0.00 72 1006.6
20260506164523 66 162 5.0 16.0 0.00 0.00 0.00 72 1006.7
20260506163028 66 127 6.0 13.0 0.00 0.00 0.00 72 1007.0
20260506161520 66 99 4.0 12.0 0.00 0.00 0.00 72 1007.1
20260506160017 66 157 0.0 8.0 0.00 0.00 0.00 74 1007.4
20260506154514 65 187 1.0 12.0 0.00 0.00 0.00 74 1007.9
20260506153012 65 158 3.0 13.0 0.00 0.00 0.00 75 1008.0
20260506151510 65 167 3.0 13.0 0.00 0.00 0.00 76 1008.3